Location: Carabito
(9.8355°N, 67.9249°W)
Time: 00:37:50
(UTC+00:00)

OAO 1 - Pass Details

Date: 23 May 2024
Orbit: 772 x 783 km, 35.0° (Epoch: 11 June)

Event Time Altitude Azimuth Distance (km) Brightness Sun altitude
Exits shadow 08:37:02 29° 299° (WNW) 1,365 5.5 -21.7°
Maximum altitude 08:39:50 79° 217° (SW) 784 4.4 -21.1°
Drops below altitude 10° 08:45:17 10° 130° (SE) 2,306 7.3 -19.9°
Sets 08:47:46 0° 129° (SE) 3,234 8.1 -19.4°
